[[{"header":{"parameterUnit":"m.s-1","parameterCategory":1,"la1":30.2991,"la2":30.254,"lo1":-89.0895,"lo2":-89.0444,"dy":0.0017,"dx":0.0017,"nx":28,"ny":28,"refTime":"2023-09-12T21:00:00:Z","depth":0,"parameterNumber":2,"parameterNumberName":"U-component_of_WINDS"},"data":[0,0,0,0,0,0,0,0,0,0,0,0,0,0,0,0,0,0,0,0,0,0,0,0,0,0,0,0,0,0,0,0,0,0,0,0,0,0,0,0,0,0,0,0,0,0,0,0,0,0,0,0,0,0,0,0,0,0,0.629,0.6291,0,0.6386,0.6387,0.6388,0.6478,0.6479,0.6481,0.6482,0.6577,0.6578,0.658,0,0,0,0,0,0,0,0,0,0,0,0,0,0.6181,0.6183,0.629,0.6291,0.6292,0.6386,0.6387,0.6388,0.6478,0.6479,0.6481,0.6482,0.6576,0.6578,0.658,0,0,0,0,0,0,0,0,0,0,0,0,0,0.6248,0.6183,0.6289,0.6348,0.6354,0.6385,0.6387,0.6389,0.6478,0.648,0.6481,0.6483,0.6576,0.6578,0.658,0.6559,0,0,0.6587,0.6588,0,0,0,0,0,0,0,0,0.6244,0.6252,0.6338,0.6344,0.6351,0.6422,0.6384,0.6446,0.6477,0.6431,0.6482,0.6484,0.6524,0.653,0.6544,0.6564,0.6568,0.6587,0.6588,0.6589,0.659,0,0,0,0,0,0,0,0.6239,0.6248,0.6328,0.6339,0.6347,0.6369,0.638,0.6396,0.6466,0.6435,0.6442,0.6452,0.6527,0.6542,0.6547,0.6569,0.6587,0.6589,0.659,0.6591,0.6577,0.6575,0,0,0,0,0,0,0.6226,0.6243,0.6325,0.633,0.6301,0.6369,0.6382,0.6397,0.6466,0.6479,0.6451,0.6456,0.6537,0.6544,0.6551,0.6531,0.6589,0.6591,0.6592,0.6578,0.6576,0.6575,0,0,0,0,0,0,0.6223,0.6232,0.6321,0.6289,0.6302,0.637,0.6386,0.6398,0.6413,0.6478,0.6491,0.6453,0.6539,0.6548,0.6557,0.6536,0.6592,0.6594,0.658,0.6578,0.6576,0.6492,0,0,0,0,0,0,0.622,0.6231,0.6224,0.6288,0.6303,0.6325,0.6385,0.6399,0.6417,0.6425,0.6484,0.6495,0.6541,0.6553,0.6559,0.654,0.6596,0.6583,0.6579,0.6576,0.6497,0.6487,0.6478,0,0,0,0,0,0.6216,0.6196,0.6223,0.6233,0.6297,0.6324,0.6333,0.6387,0.6415,0.6409,0.6451,0.6493,0.6537,0.6553,0.6561,0.6542,0.6584,0.658,0.6577,0.6501,0.6489,0.6478,0,0,0,0,0,0,0.6126,0.6205,0.6237,0.6237,0.6273,0.6339,0.6333,0.6372,0.64,0.6406,0.6472,0.6484,0.6486,0.6515,0.6531,0.6526,0.6567,0.6564,0.6507,0.6496,0.6486,0.6479,0.6598,0,0,0,0,0,0.6107,0.6124,0.6192,0.6186,0.6202,0.6264,0.6278,0.6317,0.6357,0.6372,0.6415,0.6451,0.6473,0.6486,0.651,0.6502,0.6516,0.6493,0.6483,0.6475,0.6472,0.647,0.646,0.6562,0.6562,0.6562,0,0,0.6067,0.6112,0.6118,0.6169,0.6202,0.6217,0.6276,0.629,0.6301,0.6374,0.6385,0.6418,0.6462,0.6462,0.6465,0.6487,0.6447,0.647,0.6464,0.6465,0.6465,0.6455,0.6447,0.656,0.656,0.656,0,0,0.6001,0.6037,0.6036,0.6068,0.6117,0.6159,0.6158,0.6219,0.6243,0.6256,0.6311,0.6325,0.6362,0.6392,0.6411,0.6358,0.6397,0.6363,0.6315,0.6312,0.6304,0.6297,0.6277,0.6269,0.636,0.636,0.636,0,0.5944,0.597,0.6031,0.6041,0.6061,0.6129,0.6129,0.6156,0.621,0.6222,0.6246,0.6294,0.6329,0.6337,0.6324,0.6338,0.6339,0.6357,0.63,0.6294,0.6288,0.627,0.6263,0.6356,0.6356,0.6356,0.6357,0,0.5898,0.5915,0.5909,0.596,0.598,0.5984,0.6044,0.6057,0.6094,0.6133,0.6145,0.6189,0.6223,0.6228,0.6264,0.6242,0.6254,0.6288,0.633,0.6273,0.6257,0.6251,0.6349,0.6351,0.6352,0.6353,0,0,0.5778,0.5864,0.586,0.5885,0.5944,0.5958,0.5965,0.6,0.601,0.6044,0.6052,0.6082,0.6114,0.6137,0.6177,0.6174,0.6128,0.6209,0.6211,0.6192,0.6105,0.6079,0.607,0.6156,0.6155,0.6154,0.6102,0,0.5722,0.5741,0.5795,0.5797,0.5813,0.5878,0.5885,0.5921,0.5958,0.5976,0.6016,0.6036,0.6078,0.6092,0.6092,0.6134,0.6112,0.6138,0.6162,0.6162,0.6148,0.6062,0.6034,0.5982,0.6096,0.6095,0.6094,0,0.5659,0.5691,0.5694,0.5754,0.5762,0.5767,0.5804,0.5821,0.5864,0.589,0.5915,0.596,0.5971,0.6011,0.6026,0.6043,0.6056,0.6078,0.6078,0.6081,0.6124,0.6062,0.5967,0.5959,0.6085,0.6086,0.6086,0,0.557,0.5614,0.5622,0.5641,0.571,0.5712,0.5741,0.5786,0.5803,0.5835,0.5847,0.5878,0.5895,0.5919,0.5971,0.5995,0.598,0.6024,0.6001,0.6,0.5995,0.5994,0.5899,0.6004,0.6004,0.6004,0.6004,0,0.5502,0.5501,0.5584,0.5588,0.5589,0.5652,0.5651,0.5686,0.5725,0.5737,0.5795,0.5805,0.5873,0.5891,0.5932,0.5938,0.5945,0.5966,0.5977,0.5961,0.5958,0.597,0.5974,0.6002,0.6003,0.6003,0.6003,0,0.5403,0.5458,0.5471,0.5536,0.5552,0.555,0.5606,0.5612,0.5652,0.5667,0.5674,0.5736,0.576,0.5815,0.5852,0.588,0.5875,0.5895,0.5861,0.5868,0.5842,0.5843,0.5751,0.5741,0.5852,0.5851,0.585,0,0.5355,0.5356,0.5422,0.5435,0.5461,0.5481,0.55,0.5561,0.5578,0.5627,0.5627,0.5656,0.5682,0.5716,0.5765,0.5794,0.5815,0.578,0.5819,0.5803,0.5813,0.5812,0.5813,0.5771,0.577,0.5768,0.5767,0,0.5264,0.5292,0.5317,0.5351,0.5372,0.5402,0.5435,0.5441,0.5511,0.5527,0.5552,0.5572,0.5612,0.5639,0.5676,0.5704,0.5747,0.5755,0.5751,0.5734,0.5714,0.5724,0.5837,0.5756,0.5758,0.5758,0.5759,0.5759,0.5189,0.5193,0.524,0.5266,0.5298,0.5327,0.5337,0.5379,0.5402,0.5439,0.5474,0.5496,0.5539,0.5593,0.5619,0.5636,0.5658,0.5652,0.5651,0.5648,0.5641,0.5712,0.5643,0.5643,0.5644,0.5644,0.5644,0,0.5101,0.5135,0.5158,0.5203,0.5223,0.5263,0.5302,0.5315,0.5334,0.5371,0.5396,0.5425,0.5452,0.5503,0.5534,0.5538,0.5558,0.5544,0.5544,0.555,0.562,0.562,0.5527,0.5527,0.5527,0.5527,0.5527,0.5527,0.5058,0.5067,0.51,0.5125,0.5159,0.5182,0.52,0.5227,0.5257,0.5288,0.5311,0.5344,0.5386,0.5421,0.5447,0.5461,0.547,0.5449,0.5469,0.5534,0.5545,0.5555,0.5556,0.545,0.545,0.5397,0.5397,0.5397]},{"header":{"parameterUnit":"m.s-1","parameterCategory":1,"la1":30.2991,"la2":30.254,"lo1":-89.0895,"lo2":-89.0444,"dy":0.0017,"dx":0.0017,"nx":28,"ny":28,"refTime":"2023-09-12T21:00:00:Z","depth":0,"parameterNumber":3,"parameterNumberName":"V-component_of_WINDS"},"data":[0,0,0,0,0,0,0,0,0,0,0,0,0,0,0,0,0,0,0,0,0,0,0,0,0,0,0,0,0,0,0,0,0,0,0,0,0,0,0,0,0,0,0,0,0,0,0,0,0,0,0,0,0,0,0,0,0,0,-0.9706,-0.9706,0,-0.9683,-0.9683,-0.9683,-0.9641,-0.964,-0.9639,-0.9638,-0.9616,-0.9616,-0.9617,0,0,0,0,0,0,0,0,0,0,0,0,0,-0.9714,-0.9714,-0.9706,-0.9705,-0.9705,-0.9683,-0.9683,-0.9683,-0.9641,-0.964,-0.9639,-0.9638,-0.9616,-0.9616,-0.9617,0,0,0,0,0,0,0,0,0,0,0,0,0,-0.9703,-0.9714,-0.9706,-0.9682,-0.9679,-0.9683,-0.9683,-0.9682,-0.9641,-0.964,-0.9639,-0.9637,-0.9616,-0.9616,-0.9617,-0.9643,0,0,-0.9617,-0.9618,0,0,0,0,0,0,0,0,-0.9704,-0.9703,-0.9685,-0.9683,-0.9681,-0.9663,-0.9678,-0.9669,-0.9641,-0.9656,-0.9638,-0.9637,-0.9633,-0.9632,-0.963,-0.9642,-0.9641,-0.9617,-0.9618,-0.9618,-0.9618,0,0,0,0,0,0,0,-0.9704,-0.9703,-0.9697,-0.9685,-0.9682,-0.9672,-0.9669,-0.9676,-0.9651,-0.9654,-0.9651,-0.9649,-0.9631,-0.963,-0.9629,-0.964,-0.9617,-0.9618,-0.9618,-0.9618,-0.9673,-0.9674,0,0,0,0,0,0,-0.9709,-0.9704,-0.9698,-0.9696,-0.9689,-0.9673,-0.967,-0.967,-0.9651,-0.9647,-0.965,-0.9647,-0.963,-0.9629,-0.9629,-0.9658,-0.9618,-0.9618,-0.9618,-0.9671,-0.9673,-0.9674,0,0,0,0,0,0,-0.9709,-0.9708,-0.9698,-0.9699,-0.9697,-0.9674,-0.9675,-0.967,-0.9669,-0.9648,-0.9644,-0.9653,-0.9629,-0.9628,-0.964,-0.9657,-0.9618,-0.9618,-0.967,-0.9672,-0.9674,-0.9718,0,0,0,0,0,0,-0.9709,-0.9709,-0.9718,-0.97,-0.9697,-0.971,-0.9676,-0.9671,-0.9669,-0.9665,-0.965,-0.9646,-0.9628,-0.9639,-0.964,-0.9657,-0.9619,-0.9668,-0.9671,-0.9673,-0.9715,-0.9722,-0.9727,0,0,0,0,0,-0.971,-0.9732,-0.9719,-0.9718,-0.9709,-0.9711,-0.9709,-0.9688,-0.9671,-0.9681,-0.9667,-0.9647,-0.9655,-0.9641,-0.9641,-0.9658,-0.9667,-0.967,-0.9673,-0.9713,-0.972,-0.9727,0,0,0,0,0,0,-0.9753,-0.9729,-0.9714,-0.9731,-0.9723,-0.9704,-0.9715,-0.9697,-0.9694,-0.9691,-0.9665,-0.9661,-0.9677,-0.9668,-0.9653,-0.9683,-0.9658,-0.9661,-0.9688,-0.9695,-0.9701,-0.9703,-0.9619,0,0,0,0,0,-0.9764,-0.9768,-0.9746,-0.9763,-0.976,-0.9738,-0.9738,-0.9723,-0.9714,-0.971,-0.9698,-0.969,-0.9691,-0.9692,-0.9692,-0.9713,-0.971,-0.9725,-0.9731,-0.9736,-0.974,-0.9751,-0.9758,-0.9684,-0.9684,-0.9684,0,0,-0.9788,-0.9775,-0.9779,-0.9771,-0.9764,-0.9768,-0.9736,-0.9742,-0.9745,-0.9711,-0.9722,-0.9712,-0.9702,-0.9719,-0.9725,-0.9712,-0.9759,-0.974,-0.9744,-0.9745,-0.9755,-0.9762,-0.9768,-0.9686,-0.9686,-0.9685,0,0,-0.9834,-0.9824,-0.9837,-0.983,-0.9818,-0.9804,-0.9807,-0.979,-0.9783,-0.9792,-0.9767,-0.9771,-0.9773,-0.9767,-0.9764,-0.9808,-0.9789,-0.9808,-0.984,-0.9851,-0.9857,-0.9862,-0.9879,-0.9885,-0.9812,-0.9812,-0.9812,0,-0.9865,-0.987,-0.9846,-0.9854,-0.9852,-0.9821,-0.9835,-0.9829,-0.9818,-0.9818,-0.9803,-0.9805,-0.9796,-0.9811,-0.9822,-0.982,-0.9824,-0.9811,-0.9858,-0.9863,-0.9867,-0.9883,-0.9889,-0.9814,-0.9814,-0.9814,-0.9813,0,-0.9909,-0.9914,-0.9926,-0.9916,-0.9915,-0.9926,-0.9904,-0.9906,-0.989,-0.9877,-0.9888,-0.9876,-0.9873,-0.9875,-0.986,-0.9889,-0.9881,-0.9863,-0.9837,-0.9877,-0.9892,-0.9897,-0.9818,-0.9817,-0.9816,-0.9815,0,0,-0.9982,-0.9959,-0.9964,-0.9959,-0.9944,-0.9947,-0.9957,-0.9954,-0.9956,-0.995,-0.9958,-0.996,-0.9943,-0.994,-0.9924,-0.9934,-0.997,-0.9914,-0.9913,-0.9926,-1.0003,-1.0018,-1.0025,-0.9958,-0.9959,-0.9959,-1.0004,0,-1.0025,-1.004,-1.0019,-1.0039,-1.0043,-1.0013,-1.0022,-1.0014,-1.0002,-1.0004,-0.9991,-0.9994,-0.9971,-0.9969,-0.9977,-0.9964,-0.9986,-0.9961,-0.9966,-0.9966,-0.997,-1.0032,-1.0048,-1.009,-1.0009,-1.001,-1.0011,0,-1.0078,-1.0074,-1.0094,-1.0078,-1.0079,-1.0087,-1.0083,-1.0085,-1.0076,-1.0066,-1.0063,-1.0044,-1.0053,-1.0027,-1.004,-1.0023,-1.0024,-1.0018,-1.0019,-1.0019,-0.9992,-1.0035,-1.0103,-1.011,-1.0019,-1.0018,-1.0018,0,-1.013,-1.013,-1.0142,-1.0139,-1.012,-1.0127,-1.012,-1.0109,-1.0109,-1.0105,-1.0105,-1.0102,-1.0101,-1.01,-1.0081,-1.0064,-1.0096,-1.0068,-1.0089,-1.009,-1.0098,-1.0098,-1.0168,-1.0097,-1.0097,-1.0097,-1.0097,0,-1.0181,-1.0195,-1.0165,-1.0173,-1.0188,-1.0163,-1.0179,-1.0169,-1.0159,-1.0165,-1.0139,-1.0145,-1.0119,-1.0122,-1.0107,-1.012,-1.012,-1.0113,-1.0109,-1.0116,-1.0117,-1.0117,-1.0114,-1.0098,-1.0098,-1.0098,-1.0097,0,-1.0242,-1.0223,-1.0235,-1.0216,-1.0212,-1.0224,-1.0208,-1.0215,-1.0202,-1.0209,-1.021,-1.0189,-1.0191,-1.0172,-1.017,-1.016,-1.0181,-1.0172,-1.0185,-1.0182,-1.0204,-1.0203,-1.0278,-1.0287,-1.0209,-1.021,-1.021,0,-1.0277,-1.0287,-1.027,-1.0271,-1.0265,-1.0269,-1.0268,-1.0245,-1.0245,-1.0236,-1.0244,-1.0244,-1.0243,-1.0249,-1.0234,-1.0233,-1.0224,-1.025,-1.0224,-1.0231,-1.0226,-1.0226,-1.0228,-1.0256,-1.0257,-1.0258,-1.0259,0,-1.034,-1.033,-1.033,-1.0327,-1.0328,-1.0324,-1.0319,-1.0322,-1.0297,-1.0299,-1.0301,-1.03,-1.0299,-1.0301,-1.0297,-1.029,-1.0271,-1.0267,-1.0272,-1.028,-1.0287,-1.0285,-1.0201,-1.0266,-1.0265,-1.0264,-1.0264,-1.0264,-1.039,-1.0397,-1.0387,-1.0388,-1.0382,-1.0378,-1.0383,-1.0371,-1.0372,-1.0369,-1.0355,-1.036,-1.0351,-1.0344,-1.0339,-1.0343,-1.0331,-1.0338,-1.034,-1.0342,-1.0347,-1.0286,-1.0342,-1.0342,-1.0342,-1.0342,-1.0342,0,-1.0453,-1.0444,-1.0446,-1.044,-1.0441,-1.0422,-1.0415,-1.0418,-1.0423,-1.0415,-1.0415,-1.0418,-1.0419,-1.0405,-1.0404,-1.041,-1.0402,-1.0411,-1.0411,-1.041,-1.0357,-1.0354,-1.0418,-1.0418,-1.0418,-1.0418,-1.0418,-1.0418,-1.0486,-1.0498,-1.0487,-1.0497,-1.0488,-1.0493,-1.0491,-1.0487,-1.0482,-1.0486,-1.0487,-1.0477,-1.0467,-1.0466,-1.0466,-1.0462,-1.0464,-1.0476,-1.0469,-1.0421,-1.0413,-1.0406,-1.0403,-1.0477,-1.0477,-1.0522,-1.0522,-1.0522]}]]